FLOCK 4P-5

Last updated on Sat Dec 28 2019 00:02:03 GMT+0000 (Coordinated Universal Time)

1 44818U 19081Q 19360.89925182 .00000564 00000-0 29574-4 0 9993 2 44818 97.5204 57.8488 0012308 133.1259 227.1007 15.19787859 4511

Satellite not in orbit

FLOCK 4P-5